Location: Unspecified
(0.0000°N, 0.0000°E)
Time: 06:08:27
(UTC+00:00)

Hubble Space Telescope - Pass Details

Date: 22 November 2020
Orbit: 536 x 540 km, 28.5° (Epoch: 03 December)

Event Time Altitude Azimuth Distance (km) Brightness Sun altitude
Rises 18:12:13 0° 223° (SW) 2,670 5.6 -6.1°
Reaches altitude 10° 18:14:43 10° 211° (SSW) 1,778 4.3 -6.6°
Maximum altitude 18:18:17 28° 151° (SSE) 1,014 2.1 -7.5°
Drops below altitude 10° 18:21:50 10° 90° (E) 1,774 2.8 -8.3°
Enters shadow 18:22:02 - 89° (E) 1,841 2.9 -8.4°
